Location: *
(33.3200°N, 8.3381°W)
Time: 16:58:41
(UTC+00:00)

CZ-2C R/B - Pass Details

Date: 09 April 2020
Orbit: 785 x 870 km, 98.3° (Epoch: 26 May)

Event Time Altitude Azimuth Distance (km) Brightness Sun altitude
Rises 21:01:28 0° 8° (N) 3,281 6.0 -24.7°
Reaches altitude 10° 21:03:48 10° 5° (N) 2,353 5.3 -25.1°
Maximum altitude 21:08:55 64° 285° (WNW) 874 2.9 -26.1°
Enters shadow 21:13:33 13° 206° (SSW) 2,163 4.8 -26.9°
